Location: Hungerford
(51.4167°N, 1.5167°W)
Time: 10:21:35
(UTC+00:00)

Cosmos 1048 Rocket - Pass Details

Date: 20 January 2021
Orbit: 743 x 791 km, 74.0° (Epoch: 07 March)

Event Time Altitude Azimuth Distance (km) Brightness Sun altitude
Rises 20:11:52 0° 336° (NNW) 3,197 7.6 -33.2°
Reaches altitude 10° 20:14:15 10° 339° (NNW) 2,269 6.7 -33.6°
Enters shadow 20:15:28 17° 342° (NNW) 1,810 6.1 -33.8°
